Regional Weather Roundup
Issued by NWS

Home | Current Version | Previous Version | Text Only | Print | Product List | Glossary Off
Versions: 1 2 3 4 5 6 7 8 9 10 11 12 13 14 15 16 17 18 19 20 21 22 23 24 25 26 27 28 29 30 31 32 33 34 35 36 37 38 39 40 41 42 43 44 45 46 47 48 49 50

000
ASUS43 KIND 261309
RWRIN

WEATHER ROUNDUP FOR INDIANA
NATIONAL WEATHER SERVICE INDIANAPOLIS IN
900 AM EDT THU MAY 26 2016

NOTE: "FAIR" INDICATES FEW OR NO CLOUDS BELOW 12,000 FEET WITH NO
SIGNIFICANT WEATHER AND/OR OBSTRUCTIONS TO VISIBILITY.

* - STATION DOES NOT REPORT WEATHER SUCH AS PRECIPITATION OR FOG.

+ - STATION NOT QUALITY CONTROLLED BY THE NATIONAL WEATHER SERVICE.
    USE DATA WITH CAUTION...ESPECIALLY DEWPOINT AND RELATIVE
    HUMIDITY OBSERVATIONS.

INZ001>003-010>013-019-020-261400-
NORTHWEST INDIANA

CITY           SKY/WX    TMP DP  RH WIND       PRES   REMARKS
GARY /AIRPORT/ PTSUNNY   73  73 100 S9        29.94F
KNOX *+        MOSUNNY   72  59  64 S12       29.97S
LA PORTE +     CLOUDY    73  71  96 SW10      29.97F
MICHIGAN CITY+ MOSUNNY   72  70  94 S10       29.96F
MONTICELLO +   CLOUDY    72  64  75 SW13      29.98R HAZE
RENSSELAER +   PTSUNNY   72  66  83 S15       29.97S
VALPARAISO     PTSUNNY   71  66  84 S10       29.97S

$$

LMZ046-743>745-261400-
SOUTHERN LAKE MICHIGAN

STATION/POSITION TIME  TEMP    WIND        PRES    WAVE
                       AIR SEA DIR/SP/G            HT
                 (UTC) (F)     (DEG/KT/KT) (MB)    (FT)
BURNS HARBOR     1200   69     180/  9/ 17 1014.6R
MICHIGAN CITY    1200   68     160/ 12/ 14   N/A
5NW MICH CITY    1300   65 58  200/  8/ 10   N/A     1

$$

INZ004-005-014>016-021>024-261400-
NORTH CENTRAL INDIANA

CITY           SKY/WX    TMP DP  RH WIND       PRES   REMARKS
ELKHART        CLOUDY    72  68  88 SW6       29.98F
GOSHEN         PTSUNNY   72  64  76 SW9       29.98F
LOGANSPORT +   CLOUDY    72  64  78 SW10      30.01S
PERU/GRISSOM   SUNNY     73  67  81 SW10      30.00F
ROCHESTER +    PTSUNNY   73  68  83 SW9       30.00F
SOUTH BEND     CLOUDY    70  66  87 S10       29.96F
WARSAW +       MOSUNNY   72  64  78 SW3       29.99F

$$

INZ006>009-017-018-025>027-261400-
NORTHEAST INDIANA

CITY           SKY/WX    TMP DP  RH WIND       PRES   REMARKS
ANGOLA *+      CLOUDY    72  64  78 SW9       30.01R
AUBURN +       PTSUNNY   70  63  78 SW8       30.02R
FORT WAYNE     MOSUNNY   71  63  75 SW13      30.02S
HUNTINGTON +   MOSUNNY  N/A N/A N/A SW9       30.00F

$$

INZ028-029-035-036-043>045-051>053-261400-
WEST CENTRAL INDIANA

CITY           SKY/WX    TMP DP  RH WIND       PRES   REMARKS
CRAWFORDSVL +  CLOUDY    67  67  98 S10       30.02R
GREENCASTLE +  CLOUDY    68  66  94 S3        30.03R
LAFAYETTE      CLOUDY    70  65  84 S8        29.99R
TERRE HAUTE    MOSUNNY   71  64  78 SW9       30.01R

$$

INZ030>032-037>040-046>048-054>057-064-065-261400-
CENTRAL INDIANA

CITY           SKY/WX    TMP DP  RH WIND       PRES   REMARKS
ANDERSON       PTSUNNY   70  64  83 S12       30.05
CP ATTERBURY + MOSUNNY   70  63  78 S6        30.05F
COLUMBUS       MOSUNNY   68  66  94 S9        30.05F
FISHERS *+     CLOUDY    68  66  94 S7        30.04
FRANKFORT +      N/A     70  68  94 S7        30.03R FOG
GREENWOOD *+   CLOUDY    68  64  88 S7        30.04F
INDIANAPOLIS   CLOUDY    70  64  81 S9        30.01F
-EAGLE CREEK   CLOUDY    70  64  81 S6        30.02S
KOKOMO *+      SUNNY     73  63  68 SW10      30.01S
MARION +       MOSUNNY   71  64  78 S10       30.02S
SHELBYVILLE    CLOUDY    70  63  78 S10       30.04F
ZIONSVILLE +   CLOUDY    68  65  89 S6        30.04R

$$

INZ033-034-041-042-049-050-058-059-261400-
EAST CENTRAL INDIANA

CITY           SKY/WX    TMP DP  RH WIND       PRES   REMARKS
MUNCIE         SUNNY     72  63  73 SW7       30.03S

$$

INZ060-061-067>069-081>083-085>088-261400-
SOUTHWEST INDIANA

CITY           SKY/WX    TMP DP  RH WIND       PRES   REMARKS
EVANSVILLE     SUNNY     71  63  75 SW8       30.04R
HUNTINGBURG *+ SUNNY     70  63  78 S8        30.05R
WASHINGTON +   PTSUNNY   70  66  88 S7        30.03S

$$

INZ062-063-066-070>080-084-089>092-261400-
SOUTH CENTRAL AND SOUTHEAST INDIANA

CITY           SKY/WX    TMP DP  RH WIND       PRES   REMARKS
BEDFORD +      MOSUNNY   68  68 100 S7        30.05R
BLOOMINGTON    MOSUNNY   70  63  78 S9        30.03F
MADISON *+     PTSUNNY   68  63  83 SE6       30.11R
NORTH VERNON + CLOUDY   N/A N/A N/A CALM      30.08S
SEYMOUR +      LGT RAIN  70  63  78 S7        30.06S

$$





USA.gov is the U.S. government's official web portal to all federal, state and local government web resources and services.